Regional Weather Roundup
Issued by NWS

Home | Current Version | Previous Version | Text Only | Print | Product List | Glossary On
Versions: 1 2 3 4 5 6 7 8 9 10 11 12 13 14 15 16 17 18 19 20 21 22 23 24 25 26 27 28 29 30 31 32 33 34 35 36 37 38 39 40 41 42 43 44 45 46 47 48 49 50
000
ASUS43 KBIS 190501
RWRND

NORTH DAKOTA REGIONAL WEATHER ROUNDUP
NATIONAL WEATHER SERVICE BISMARCK ND
1200 AM CDT SUN APR 19 2015

NOTE: "FAIR" INDICATES FEW OR NO CLOUDS BELOW 12,000 FEET WITH NO
SIGNIFICANT WEATHER AND/OR OBSTRUCTIONS TO VISIBILITY.


NDZ001>003-009>011-017-190600-
NORTHWEST NORTH DAKOTA

CITY           SKY/WX    TMP DP  RH WIND       PRES   REMARKS
WILLISTON      MOCLDY    43  28  55 NW13      30.03S
MINOT          CLOUDY    46  37  71 NW18      29.92F
MINOT AFB      CLOUDY    46  43  86 NW18G29   29.92S
$$

NDZ018>021-031>035-040>046-190600-
SOUTHWEST NORTH DAKOTA

CITY           SKY/WX    TMP DP  RH WIND       PRES   REMARKS
BISMARCK       LGT RAIN  48  46  93 NW22G29   29.91S
DICKINSON      CLOUDY    46  34  62 NW16      29.98R
GARRISON         N/A     47  42  83 N13       29.94S
HETTINGER ARPT CLOUDY    45  41  86 NW12      29.99S
$$

NDZ004>008-012>016-024-026-027-054-190600-
NORTHEAST NORTH DAKOTA

CITY           SKY/WX    TMP DP  RH WIND       PRES   REMARKS
GRAND FORKS    CLOUDY    57  31  37 SE6       29.80F
DEVILS LAKE    CLOUDY    54  37  54 W20G26    29.82F
$$

NDZ022-023-025-028>030-036>039-047>053-190600-
SOUTHEAST NORTH DAKOTA

CITY           SKY/WX    TMP DP  RH WIND       PRES   REMARKS
FARGO          CLOUDY    61  40  45 S18       29.81S
JAMESTOWN      CLOUDY    51  44  77 NW23G30   29.80F
$$




USA.gov is the U.S. government's official web portal to all federal, state and local government web resources and services.